Regional Weather Roundup
Issued by NWS

Home | Current Version | Previous Version | Graphics & Text | Print | Product List | Glossary Off
Versions: 1 2 3 4 5 6 7 8 9 10 11 12 13 14 15 16 17 18 19 20 21 22 23 24 25 26 27 28 29 30 31 32 33 34 35 36 37 38 39 40 41 42 43 44 45 46 47 48 49 50

000
ASUS43 KDTX 311210
RWRMI
MICHIGAN HOURLY REGIONAL WEATHER ROUNDUP
NATIONAL WEATHER SERVICE DETROIT/PONTIAC MI
800 AM EDT MON AUG 31 2015

NOTE: "FAIR" INDICATES FEW OR NO CLOUDS BELOW 12,000 FEET WITH NO
SIGNIFICANT WEATHER AND/OR OBSTRUCTION TO VISIBILITY.

MIZ047>049-052>055-059>063-066>070-074>076-081>083-311300-
SOUTHEAST LOWER MICHIGAN

CITY           SKY/WX    TMP DP  RH WIND       PRES   REMARKS
ADRIAN         MOSUNNY   63  62  97 CALM      30.09R FOG
6HR MIN TEMP:  60; 6HR MAX TEMP:  65;

ALMA           CLOUDY    63  63  99 CALM      30.08R FOG
ANN ARBOR      MOSUNNY   61  61 100 CALM      30.08R FOG
BAD AXE        FOG       63  63 100 SW3       30.07R VSB<1/4
CARO           FOG       62  62 100 W5        30.06R VSB<1/4
DETROIT CITY   SUNNY     69  66  90 CALM      30.07R FOG
6HR MIN TEMP:  67; 6HR MAX TEMP:  70;

DETROIT        MOSUNNY   68  66  93 CALM      30.08R FOG
6HR MIN TEMP:  66; 6HR MAX TEMP:  70;

FLINT          CLOUDY    65  62  90 W6        30.08R FOG
6HR MIN TEMP:  59; 6HR MAX TEMP:  66;

GROSSE ILE     PTSUNNY   68  66  94 CALM      30.06R FOG
HILLSDALE      FOG       63  63  99 CALM      30.10R VSB 1/2
HOWELL         FOG       62  62 100 W3        30.08R VSB 1/4

CITY           SKY/WX    TMP DP  RH WIND       PRES   REMARKS
JACKSON        CLOUDY    63  62  97 CALM      30.09R FOG
6HR MIN TEMP:  59; 6HR MAX TEMP:  63;

LAMBERTVILLE   FOG       65  63  93 CALM      30.09R VSB<1/4
6HR MIN TEMP:  62; 6HR MAX TEMP:  67;

LANSING        FOG       63  62  97 W7        30.09R VSB 1
6HR MIN TEMP:  61; 6HR MAX TEMP:  63;

LAPEER         CLOUDY    64  64 100 W5        30.07R FOG
6HR MIN TEMP:  56; 6HR MAX TEMP:  64;

MASON          FOG       61  59  93 W3        30.09R VSB 1/4
MONROE         FOG       65  64  99 CALM      30.07R VSB 1/2
6HR MIN TEMP:  62; 6HR MAX TEMP:  66;

MT. CLEMENS    MOSUNNY   64  64  99 CALM      30.05R
6HR MIN TEMP:  63; 6HR MAX TEMP:  67;

PONTIAC        FOG       64  64 100 W7        30.07R VSB 1/2
6HR MIN TEMP:  61; 6HR MAX TEMP:  67;

PORT HOPE        N/A     64  64 100 SW6       30.03R
6HR MIN TEMP:  63; 6HR MAX TEMP:  67;

PORT HURON     MOSUNNY   61  61 100 CALM      30.06S FOG
TRI CITIES     CLOUDY    64  61  90 W8        30.07R FOG
6HR MIN TEMP:  63; 6HR MAX TEMP:  67;

MIDLAND        CLOUDY    63  62  97 W6        30.06R FOG
TROY           SUNNY     68  66  92 W3        30.08R FOG
SAGINAW HB     FOG       63  63 100 SW5       30.06R VSB 1/4
$$
MIZ043>046-050>051-056>058-064>065-071>073-077>080-311300-
SOUTHWEST LOWER MICHIGAN

CITY           SKY/WX    TMP DP  RH WIND       PRES   REMARKS
BATTLE CREEK   PTCLDY    64  62  93 SW3       30.09R FOG
6HR MIN TEMP:  59; 6HR MAX TEMP:  65;

BENTON HARBOR  PTCLDY    59  58  96 CALM      30.07R FOG
6HR MIN TEMP:  58; 6HR MAX TEMP:  60;

BIG RAPIDS     FOG       58  58  98 CALM      30.06S VSB 1/4
6HR MIN TEMP:  55; 6HR MAX TEMP:  59;

COLDWATER      FOG       62  62 100 CALM      30.09R VSB 1
6HR MIN TEMP:  60; 6HR MAX TEMP:  62;

FREMONT        FOG       62  62 100 CALM      30.07R VSB<1/4
HOLLAND        CLEAR     61  57  87 CALM      30.08R FOG
6HR MIN TEMP:  59; 6HR MAX TEMP:  64;

GRAND RAPIDS   FOG       62  61  96 S3        30.09R VSB 1/8
6HR MIN TEMP:  62; 6HR MAX TEMP:  66;

IONIA          CLOUDY    64  64 100 CALM      30.08R FOG
KALAMAZOO      PTCLDY    59  57  93 CALM      30.09R FOG
6HR MIN TEMP:  57; 6HR MAX TEMP:  62;

LUDINGTON      CLOUDY    66  64  93 SW6       30.05S FOG
6HR MIN TEMP:  66; 6HR MAX TEMP:  68;

MARSHALL       CLOUDY    61  60  98 CALM      30.09R
MOUNT PLEASANT CLOUDY    64  62  94 W5        30.06R FOG
6HR MIN TEMP:  62; 6HR MAX TEMP:  64;

MUSKEGON       CLOUDY    61  59  93 CALM      30.07R FOG
6HR MIN TEMP:  59; 6HR MAX TEMP:  61;

SOUTH HAVEN    CLEAR     57  56  95 CALM      30.07R FOG
$$
MIZ016>042-311300-
NORTHERN LOWER MICHIGAN

CITY           SKY/WX    TMP DP  RH WIND       PRES   REMARKS
ALPENA         SUNNY     62  60  93 SW3       30.02R
6HR MIN TEMP:  58; 6HR MAX TEMP:  64;

BEAVER ISLAND  CLOUDY    65  64  96 SW7       30.00R FOG
6HR MIN TEMP:  64; 6HR MAX TEMP:  65;

BELLAIRE       CLOUDY    65  63  94 S3        30.03R FOG
6HR MIN TEMP:  56; 6HR MAX TEMP:  65;

CADILLAC       FOG       63  62  98 SW5       30.06R VSB 1/2
CHARLEVOIX     CLEAR     65  64  99 S7        30.03S FOG
6HR MIN TEMP:  63; 6HR MAX TEMP:  65;

FRANKFORT      CLEAR     65  64  96 SW5       30.03R FOG
GAYLORD        FOG       63  63 100 SW7       30.05R VSB 1/4
6HR MIN TEMP:  59; 6HR MAX TEMP:  63;

GRAYLING       FOG       61  61  99 CALM      30.06R VSB 1/4
6HR MIN TEMP:  56; 6HR MAX TEMP:  63;

HARBOR SPRINGS CLOUDY    65  63  94 SW5       30.01S FOG
HOUGHTON LAKE  FOG       62  61  96 W6        30.06R VSB 1/4
6HR MIN TEMP:  61; 6HR MAX TEMP:  64;

MANISTEE       CLOUDY    61  57  88 CALM      30.05S VSB<1/4
OSCODA         SUNNY     63  63  99 W3        30.02R
6HR MIN TEMP:  57; 6HR MAX TEMP:  64;

PELLSTON       CLOUDY    67  64  90 W6        30.01R
6HR MIN TEMP:  64; 6HR MAX TEMP:  67;

ROGERS CITY    SUNNY     64  62  91 W8        30.02R
TRAVERSE CITY  CLOUDY    66  63  90 S3        30.02R FOG
6HR MIN TEMP:  64; 6HR MAX TEMP:  66;

$$
MIZ007>008-015-311300-
EASTERN UPPER MICHIGAN

CITY           SKY/WX    TMP DP  RH WIND       PRES   REMARKS
KINROSS        CLOUDY    64  64 100 W3        29.99S
6HR MIN TEMP:  64; 6HR MAX TEMP:  64;

MACKINAC ISLAN CLOUDY    65  64  96 W9        30.00R FOG
NEWBERRY       FOG       62  62  99 SW3       29.98R VSB 1/4
6HR MIN TEMP:  62; 6HR MAX TEMP:  63;

S. S. MARIE    CLOUDY    66  63  90 CALM      29.98R FOG
6HR MIN TEMP:  63; 6HR MAX TEMP:  66;

MUNISING         N/A     65  61  87 S8        29.96R
6HR MIN TEMP:  64; 6HR MAX TEMP:  70;

$$
MIZ004>006-011>014-085-311300-
CENTRAL UPPER MICHIGAN

CITY           SKY/WX    TMP DP  RH WIND       PRES   REMARKS
MANISTIQUE     CLOUDY    64  64  97 W3        29.98R FOG
6HR MIN TEMP:  62; 6HR MAX TEMP:  64;

ESCANABA       CLOUDY    63  61  94 SW3       29.98R VSB<1/4
6HR MIN TEMP:  55; 6HR MAX TEMP:  63;

MENOMINEE      CLOUDY    63  59  88 W6        29.99R VSB 1
6HR MIN TEMP:  61; 6HR MAX TEMP:  64;

SAWYER-GWINN   FOG       57  55  94 SW3       29.98R VSB 3/4
$$
MIZ001>003-009>011-084-311300-
WESTERN UPPER MICHIGAN

CITY           SKY/WX    TMP DP  RH WIND       PRES   REMARKS
IRON MOUNTAIN  PTCLDY    57  56  96 CALM      29.98R FOG
6HR MIN TEMP:  56; 6HR MAX TEMP:  64;

HOUGHTON       FOG       62  61  96 S3        29.93R VSB 1/4
6HR MIN TEMP:  61; 6HR MAX TEMP:  68;

IRONWOOD       CLEAR     63  63 100 S7        29.92S
6HR MIN TEMP:  63; 6HR MAX TEMP:  66;

$$

ABBREVIATIONS USED IN REMARKS
   TC - TEMPERATURE IN CELSIUS
  WCI - WIND CHILL INDEX
   HX - HEAT INDEX
  VSB - VISIBILITY



USA.gov is the U.S. government's official web portal to all federal, state and local government web resources and services.